[TLELIST] Archives

 

[TLELIST] Current TLEs

February 7th 2024 PST

HST 1 20580U 90037B 24037.72021725 .00006709 00000-0 33202-3 0 9991 2 20580 28.4680 144.6190 0002898 55.0346 305.0518 15.15813819657057 ISS (ZARYA) 1 25544U 98067A 24038.23820593 .00015716 00000-0 28688-3 0 9994 2 25544 51.6400 244.2771 0001898 204.0772 317.3673 15.49589938438245 CXO 1 25867U 99040B 24038.30087173 .00000889 00000-0 00000-0 0 9991 2 25867 38.6288 167.3734 8986238 286.3622 1.2517 0.37808644 14077 ...Continue Reading

[TLELIST] Current TLEs

February 6th 2024 PST

HST 1 20580U 90037B 24036.73261363 .00006570 00000-0 32505-3 0 9996 2 20580 28.4678 151.2168 0002859 44.0730 316.0089 15.15801586656901 ISS (ZARYA) 1 25544U 98067A 24037.20615536 .00014912 00000-0 27301-3 0 9997 2 25544 51.6401 249.3892 0001810 205.4863 314.8810 15.49552210438086 CXO 1 25867U 99040B 24038.30087173 .00000889 00000-0 00000-0 0 9991 2 25867 38.6288 167.3734 8986238 286.3622 1.2517 0.37808644 14077 ...Continue Reading

[TLELIST] Current TLEs

February 6th 2024 PST

HST 1 20580U 90037B 24036.73261363 .00006570 00000-0 32505-3 0 9996 2 20580 28.4678 151.2168 0002859 44.0730 316.0089 15.15801586656901 ISS (ZARYA) 1 25544U 98067A 24037.20615536 .00014912 00000-0 27301-3 0 9997 2 25544 51.6401 249.3892 0001810 205.4863 314.8810 15.49552210438086 CXO 1 25867U 99040B 24038.30087173 .00000889 00000-0 00000-0 0 9991 2 25867 38.6288 167.3734 8986238 286.3622 1.2517 0.37808644 14077 ...Continue Reading

[TLELIST] Current TLEs

February 5th 2024 PST

HST 1 20580U 90037B 24035.74500162 .00006405 00000-0 31674-3 0 9992 2 20580 28.4677 157.8142 0002784 34.3697 325.7075 15.15790418656751 ISS (ZARYA) 1 25544U 98067A 24036.23733950 .00012685 00000-0 23378-3 0 9995 2 25544 51.6412 254.1840 0002268 198.2735 314.1411 15.49517523437931 CXO 1 25867U 99040B 24038.30087173 .00000889 00000-0 00000-0 0 9991 2 25867 38.6288 167.3734 8986238 286.3622 1.2517 0.37808644 14077 ...Continue Reading

[TLELIST] Current TLEs

February 4th 2024 PST

HST 1 20580U 90037B 24034.75738228 .00005693 00000-0 28058-3 0 9998 2 20580 28.4678 164.4119 0002722 23.6194 336.4523 15.15779356656604 ISS (ZARYA) 1 25544U 98067A 24035.51427132 .00013312 00000-0 24504-3 0 9997 2 25544 51.6412 257.7623 0002262 195.9983 240.3224 15.49502007437823 CXO 1 25867U 99040B 24035.65432876 .00000814 00000-0 00000+0 0 9997 2 25867 38.5938 167.6425 8987917 286.1599 0.8610 0.37812418 25215 ...Continue Reading

[TLELIST] Current TLEs

February 3rd 2024 PST

HST 1 20580U 90037B 24033.76975623 .00005097 00000-0 25024-3 0 9998 2 20580 28.4677 171.0093 0002693 13.4962 346.5701 15.15768431656450 ISS (ZARYA) 1 25544U 98067A 24034.22935277 .00013670 00000-0 25170-3 0 9995 2 25544 51.6412 264.1237 0002401 190.7253 273.4103 15.49468734437623 CXO 1 25867U 99040B 24035.65432876 .00000814 00000-0 00000+0 0 9997 2 25867 38.5938 167.6425 8987917 286.1599 0.8610 0.37812418 25215 ...Continue Reading

[TLELIST] Current TLEs

February 2nd 2024 PST

HST 1 20580U 90037B 24032.78212384 .00005275 00000-0 25943-3 0 9995 2 20580 28.4676 177.6065 0002705 3.6314 356.4297 15.15758990656309 ISS (ZARYA) 1 25544U 98067A 24033.14127905 .00013172 00000-0 24312-3 0 9990 2 25544 51.6421 269.5100 0002368 186.5110 324.3032 15.49436537437452 CXO 1 25867U 99040B 24035.65432876 .00000814 00000-0 00000+0 0 9997 2 25867 38.5938 167.6425 8987917 286.1599 0.8610 0.37812418 25215 ...Continue Reading

[TLELIST] Current TLEs

February 2nd 2024 PST

HST 1 20580U 90037B 24032.78212384 .00005275 00000-0 25943-3 0 9995 2 20580 28.4676 177.6065 0002705 3.6314 356.4297 15.15758990656309 ISS (ZARYA) 1 25544U 98067A 24033.14127905 .00013172 00000-0 24312-3 0 9990 2 25544 51.6421 269.5100 0002368 186.5110 324.3032 15.49436537437452 CXO 1 25867U 99040B 24035.65432876 .00000814 00000-0 00000+0 0 9997 2 25867 38.5938 167.6425 8987917 286.1599 0.8610 0.37812418 25215 ...Continue Reading

[TLELIST] Current TLEs

February 1st 2024 PST

HST 1 20580U 90037B 24031.86032733 .00005463 00000-0 26906-3 0 9990 2 20580 28.4674 183.7628 0002550 353.2658 6.7899 15.15749951656167 ISS (ZARYA) 1 25544U 98067A 24032.17171159 .00013291 00000-0 24546-3 0 9993 2 25544 51.6422 274.3095 0002294 183.9900 315.0776 15.49410305437307 CXO 1 25867U 99040B 24033.00810059 .00000752 00000-0 00000-0 0 9999 2 25867 38.5764 167.8442 8991203 286.0130 0.5394 0.37812923 14053 ...Continue Reading

[TLELIST] Current TLEs

February 1st 2024 PST

HST 1 20580U 90037B 24031.86032733 .00005463 00000-0 26906-3 0 9990 2 20580 28.4674 183.7628 0002550 353.2658 6.7899 15.15749951656167 ISS (ZARYA) 1 25544U 98067A 24032.17171159 .00013291 00000-0 24546-3 0 9993 2 25544 51.6422 274.3095 0002294 183.9900 315.0776 15.49410305437307 CXO 1 25867U 99040B 24033.00810059 .00000752 00000-0 00000-0 0 9999 2 25867 38.5764 167.8442 8991203 286.0130 0.5394 0.37812923 14053 ...Continue Reading
  • This mailing list is a public mailing list - anyone may join or leave, at any time.
  • This mailing list is announce-only.

International Space Station (ISS) / Hubble Space Telescope (HST) / Chandra X-Ray Observatory Orbital Data via EMAIL

Privacy Policy:

Private list